TimeEST,TemperatureF,Dew PointF,Humidity,Sea Level PressureIn,VisibilityMPH,Wind Direction,Wind SpeedMPH,Gust SpeedMPH,PrecipitationIn,Events,Conditions,WindDirDegrees,DateUTC
12:54 AM,45.0,28.9,53,30.16,10.0,NW,6.9,-,N/A,,Overcast,310,2013-01-07 05:54:00
1:54 AM,44.1,28.9,55,30.17,10.0,WNW,5.8,-,N/A,,Partly Cloudy,300,2013-01-07 06:54:00
2:54 AM,43.0,30.0,60,30.19,10.0,NW,6.9,-,N/A,,Scattered Clouds,320,2013-01-07 07:54:00
3:54 AM,43.0,28.9,58,30.21,10.0,WNW,5.8,-,N/A,,Mostly Cloudy,300,2013-01-07 08:54:00
4:54 AM,42.1,30.0,62,30.24,10.0,NW,4.6,-,N/A,,Clear,320,2013-01-07 09:54:00
5:54 AM,39.0,30.9,73,30.27,10.0,Calm,Calm,-,N/A,,Overcast,0,2013-01-07 10:54:00
6:54 AM,42.1,30.9,65,30.31,10.0,NW,6.9,-,N/A,,Overcast,310,2013-01-07 11:54:00
7:54 AM,41.0,28.0,60,30.34,10.0,WNW,5.8,-,N/A,,Clear,300,2013-01-07 12:54:00
8:54 AM,43.0,27.0,53,30.38,10.0,NW,5.8,-,N/A,,Clear,310,2013-01-07 13:54:00
9:54 AM,44.1,28.0,53,30.40,10.0,NW,12.7,-,N/A,,Clear,310,2013-01-07 14:54:00
10:54 AM,45.0,27.0,49,30.42,10.0,NW,10.4,19.6,N/A,,Clear,320,2013-01-07 15:54:00
11:54 AM,45.0,27.0,49,30.40,10.0,WNW,12.7,-,N/A,,Clear,300,2013-01-07 16:54:00
12:54 PM,46.0,26.1,46,30.40,10.0,NW,11.5,-,N/A,,Clear,310,2013-01-07 17:54:00
1:54 PM,46.0,26.1,46,30.40,10.0,NW,9.2,-,N/A,,Clear,310,2013-01-07 18:54:00
3:54 PM,45.0,26.1,48,30.42,10.0,WNW,4.6,-,N/A,,Clear,300,2013-01-07 20:54:00
4:54 PM,43.0,28.9,58,30.43,10.0,NNW,3.5,-,N/A,,Clear,340,2013-01-07 21:54:00
5:54 PM,39.9,28.9,65,30.45,10.0,Calm,Calm,-,N/A,,Clear,0,2013-01-07 22:54:00
6:54 PM,37.0,28.9,73,30.45,10.0,Calm,Calm,-,N/A,,Clear,0,2013-01-07 23:54:00
7:54 PM,36.0,30.0,79,30.45,9.0,Calm,Calm,-,N/A,,Clear,0,2013-01-08 00:54:00
8:54 PM,34.0,28.9,82,30.46,7.0,Calm,Calm,-,N/A,,Clear,0,2013-01-08 01:54:00
9:54 PM,33.1,28.0,82,30.45,7.0,Calm,Calm,-,N/A,,Clear,0,2013-01-08 02:54:00
10:54 PM,33.1,28.9,85,30.44,7.0,Calm,Calm,-,N/A,,Clear,0,2013-01-08 03:54:00
11:54 PM,30.9,28.0,89,30.43,6.0,Calm,Calm,-,N/A,,Clear,0,2013-01-08 04:54:00